Погода в Ушкалое

Россия / Чеченская Республика     42°46′51″N   45°36′44″E
темп.,
°C
ветер,
м/с
пор.,
м/с
влажн.,
%
обл.,
%
осадки,
мм/ч
давл.,
гПа
погр.,
м
16 апреля, пт
пт1600:00+3ююз226820 0.0 101924
03:00+2ююз22616 0.0 102023
06:00+3ююз216210 0.0 102122
09:00+9св22475 0.0 10181107
12:00+13св133987 0.0 10171915
15:00+12св124881 0.8 10171495
18:00+9в12658 0.6 1018260
21:00+5ююз34671 0.6 102072
17 апреля, сб
сб1700:00+5ююз34695 0.0 102181
03:00+5ююз44695 0.0 102093
06:00+5ююз4465100 0.0 101994
09:00+14зюз123980 0.0 1016978
12:00+14ссв1246100 0.0 10171284
15:00+12ссв225997 0.0 1018815
18:00+8св218399 0.0 1020302
21:00+6св1192100 0.1 1021177
18 апреля, вс
вс1800:00+6св1195100 0.1 1020179
03:00+5св019590 0.1 1020115
06:00+6всв119299 0.0 1020120
09:00+11юв1268100 0.0 1017488
12:00+15юв035298 0.0 10151205
15:00+14ююв135468 0.1 10141091
18:00+12ю126798 0.1 1015293
21:00+8юз0180100 0.4 101847
19 апреля, пн
пн1900:00+7ююз1181100 0.1 101917
03:00+7ююз2271100 0.1 101821
06:00+8ююз1170100 0.0 101819
09:00+13всв125249 0.0 1016869
12:00+17ссв234652 0.1 10151628
15:00+16всв1252100 0.6 10141174
18:00+13ююв126563 0.1 1015265
21:00+10ююз346716 0.1 101697
20 апреля, вт
вт2000:00+10ююз4662100 0.0 1015115
03:00+11ююз4562100 0.0 1013101
06:00+12ююз4457100 0.0 101283
09:00+18ююз3439100 0.0 1009439
12:00+22ююз4628100 0.0 10061826
15:00+21юз3533100 0.0 10061389
18:00+15ююз5756100 0.1 1007280
21:00+11ю1269100 1.0 101168